[[{"header":{"parameterUnit":"m.s-1","parameterCategory":1,"la1":30.2991,"la2":30.254,"lo1":-89.0895,"lo2":-89.0444,"dy":0.0017,"dx":0.0017,"nx":28,"ny":28,"refTime":"2024-03-12T21:00:00:Z","depth":0,"parameterNumber":2,"parameterNumberName":"U-component_of_WINDS"},"data":[0,0,0,0,0,0,0,0,0,0,0,0,0,0,0,0,0,0,0,0,0,0,0,0,0,0,0,0,0,0,0,0,0,0,0,0,0,0,0,0,0,0,0,0,0,0,0,0,0,0,0,0,0,0,0,0,0,0,-1.6023,-1.6023,0,-1.5993,-1.5993,-1.5993,-1.5908,-1.5907,-1.5905,-1.5903,-1.5875,-1.5876,-1.5877,0,0,0,0,0,0,0,0,0,0,0,0,0,-1.6009,-1.6009,-1.6023,-1.6022,-1.6022,-1.5994,-1.5993,-1.5993,-1.5909,-1.5906,-1.5904,-1.5902,-1.5875,-1.5876,-1.5877,0,0,0,0,0,0,0,0,0,0,0,0,0,-1.6001,-1.601,-1.6023,-1.5977,-1.5972,-1.5994,-1.5993,-1.5993,-1.5909,-1.5906,-1.5904,-1.5901,-1.5874,-1.5876,-1.5877,-1.5941,0,0,-1.5882,-1.5882,0,0,0,0,0,0,0,0,-1.6001,-1.6001,-1.5984,-1.598,-1.5975,-1.5952,-1.5978,-1.5976,-1.591,-1.5933,-1.5903,-1.59,-1.5903,-1.5902,-1.5902,-1.594,-1.5939,-1.5882,-1.5883,-1.5883,-1.5884,0,0,0,0,0,0,0,-1.6002,-1.6002,-1.6011,-1.5984,-1.5978,-1.5958,-1.5954,-1.5977,-1.5934,-1.5931,-1.5925,-1.5922,-1.59,-1.5901,-1.5901,-1.5938,-1.5882,-1.5883,-1.5884,-1.5884,-1.6029,-1.6032,0,0,0,0,0,0,-1.6009,-1.6003,-1.6012,-1.601,-1.5982,-1.5961,-1.5956,-1.5962,-1.5933,-1.5926,-1.5925,-1.5919,-1.59,-1.59,-1.59,-1.5974,-1.5883,-1.5885,-1.5885,-1.6026,-1.6029,-1.6033,0,0,0,0,0,0,-1.6009,-1.601,-1.6013,-1.6005,-1.6004,-1.5964,-1.5971,-1.5963,-1.5964,-1.5929,-1.5921,-1.5934,-1.5898,-1.5898,-1.5932,-1.5972,-1.5885,-1.5887,-1.6022,-1.6027,-1.6031,-1.6122,0,0,0,0,0,0,-1.6009,-1.6011,-1.6034,-1.6006,-1.6005,-1.6045,-1.5974,-1.5964,-1.5967,-1.5958,-1.5935,-1.5929,-1.5896,-1.593,-1.5933,-1.5972,-1.5888,-1.6019,-1.6024,-1.603,-1.6115,-1.6129,-1.6141,0,0,0,0,0,-1.6009,-1.6061,-1.6036,-1.6037,-1.6033,-1.6048,-1.6047,-1.6007,-1.597,-1.5994,-1.5971,-1.5929,-1.5967,-1.5934,-1.5937,-1.5977,-1.6016,-1.6023,-1.6029,-1.611,-1.6126,-1.6141,0,0,0,0,0,0,-1.6095,-1.6057,-1.6028,-1.6073,-1.6064,-1.6033,-1.6062,-1.6026,-1.6028,-1.602,-1.5972,-1.5967,-1.6008,-1.5996,-1.596,-1.6038,-1.5985,-1.5992,-1.6045,-1.606,-1.6073,-1.6075,-1.5889,0,0,0,0,0,-1.612,-1.6134,-1.61,-1.6143,-1.614,-1.6102,-1.6107,-1.6077,-1.6067,-1.6063,-1.6042,-1.6034,-1.6044,-1.6052,-1.6059,-1.6113,-1.6108,-1.6142,-1.6155,-1.6166,-1.6173,-1.6202,-1.6217,-1.6054,-1.6054,-1.6054,0,0,-1.617,-1.6151,-1.6163,-1.616,-1.615,-1.6167,-1.6099,-1.612,-1.6132,-1.6066,-1.6096,-1.6082,-1.607,-1.6115,-1.6133,-1.6105,-1.6217,-1.6174,-1.6183,-1.6184,-1.621,-1.6226,-1.6239,-1.6059,-1.6058,-1.6057,0,0,-1.6271,-1.6257,-1.6292,-1.6283,-1.6268,-1.6243,-1.6252,-1.6226,-1.6214,-1.6244,-1.6195,-1.6209,-1.6227,-1.6221,-1.622,-1.632,-1.6282,-1.6323,-1.639,-1.6419,-1.6432,-1.6443,-1.6479,-1.6492,-1.6331,-1.6331,-1.6331,0,-1.6335,-1.6358,-1.6315,-1.6339,-1.6339,-1.628,-1.6315,-1.6309,-1.6298,-1.63,-1.6269,-1.6291,-1.6278,-1.6321,-1.6346,-1.6347,-1.6356,-1.6326,-1.6433,-1.6444,-1.6454,-1.6488,-1.6501,-1.6336,-1.6335,-1.6335,-1.6334,0,-1.6439,-1.6456,-1.6486,-1.6476,-1.648,-1.651,-1.6472,-1.6481,-1.6452,-1.643,-1.6462,-1.6445,-1.6448,-1.6457,-1.6428,-1.6496,-1.6479,-1.6442,-1.6386,-1.6475,-1.6506,-1.6519,-1.6344,-1.6342,-1.634,-1.6339,0,0,-1.6592,-1.6559,-1.657,-1.6566,-1.6546,-1.6558,-1.6586,-1.6589,-1.6598,-1.6593,-1.6615,-1.6633,-1.6598,-1.6597,-1.6567,-1.6593,-1.6674,-1.6552,-1.6551,-1.6575,-1.6749,-1.6777,-1.6793,-1.6649,-1.6651,-1.6653,-1.675,0,-1.6687,-1.6731,-1.6694,-1.6746,-1.6761,-1.6706,-1.673,-1.6721,-1.6702,-1.6713,-1.6692,-1.6706,-1.6658,-1.6658,-1.668,-1.6659,-1.6708,-1.6652,-1.667,-1.6671,-1.6674,-1.6809,-1.6839,-1.6931,-1.6761,-1.6764,-1.6765,0,-1.6804,-1.6804,-1.6857,-1.6835,-1.684,-1.6862,-1.6862,-1.6873,-1.6863,-1.6847,-1.6847,-1.6811,-1.6837,-1.6784,-1.6821,-1.6783,-1.6789,-1.678,-1.6782,-1.6782,-1.6723,-1.6813,-1.6959,-1.6973,-1.6784,-1.6782,-1.6781,0,-1.6911,-1.6924,-1.6958,-1.6956,-1.693,-1.6947,-1.6938,-1.6924,-1.6929,-1.6929,-1.6931,-1.6935,-1.6938,-1.6942,-1.6908,-1.6872,-1.695,-1.6893,-1.6938,-1.6939,-1.6956,-1.6956,-1.7106,-1.696,-1.696,-1.696,-1.696,0,-1.7021,-1.7056,-1.7006,-1.7027,-1.7065,-1.7022,-1.7061,-1.7046,-1.7034,-1.7052,-1.7005,-1.7022,-1.6977,-1.699,-1.6964,-1.6999,-1.7,-1.6989,-1.6982,-1.6993,-1.6995,-1.6996,-1.6989,-1.6964,-1.6963,-1.6962,-1.6961,0,-1.7146,-1.7114,-1.7147,-1.7121,-1.7115,-1.7144,-1.7122,-1.7141,-1.7119,-1.7142,-1.7145,-1.7111,-1.7125,-1.7092,-1.71,-1.7083,-1.7133,-1.7115,-1.7136,-1.7131,-1.7178,-1.7174,-1.7334,-1.7353,-1.7196,-1.7197,-1.7199,0,-1.7218,-1.7244,-1.7221,-1.7229,-1.7222,-1.7236,-1.724,-1.7199,-1.7206,-1.7197,-1.7217,-1.7226,-1.7232,-1.7256,-1.7233,-1.7239,-1.7222,-1.7277,-1.7222,-1.7233,-1.7223,-1.7222,-1.7224,-1.7289,-1.7291,-1.7292,-1.7293,0,-1.735,-1.7333,-1.7341,-1.7344,-1.735,-1.7351,-1.7348,-1.7357,-1.7314,-1.7324,-1.7337,-1.7341,-1.735,-1.7361,-1.7363,-1.7353,-1.7317,-1.7311,-1.7322,-1.7334,-1.7345,-1.734,-1.7167,-1.7307,-1.7306,-1.7305,-1.7304,-1.7304,-1.7451,-1.7472,-1.7459,-1.7469,-1.7463,-1.7462,-1.7478,-1.7459,-1.7469,-1.7472,-1.7448,-1.7467,-1.7457,-1.7455,-1.745,-1.7465,-1.7439,-1.7455,-1.7459,-1.7463,-1.7471,-1.7343,-1.7465,-1.7464,-1.7464,-1.7464,-1.7463,0,-1.7581,-1.757,-1.758,-1.7577,-1.7586,-1.7551,-1.7546,-1.7556,-1.7573,-1.7566,-1.7573,-1.7588,-1.7599,-1.7577,-1.7583,-1.76,-1.7583,-1.7603,-1.7601,-1.76,-1.7493,-1.7483,-1.7616,-1.7616,-1.7616,-1.7616,-1.7616,-1.7616,-1.7649,-1.7682,-1.7664,-1.7694,-1.7683,-1.7701,-1.7701,-1.77,-1.7695,-1.7714,-1.7722,-1.7708,-1.7695,-1.7701,-1.771,-1.7703,-1.7708,-1.7733,-1.7721,-1.7622,-1.7607,-1.7593,-1.7583,-1.7735,-1.7735,-1.7826,-1.7827,-1.7828]},{"header":{"parameterUnit":"m.s-1","parameterCategory":1,"la1":30.2991,"la2":30.254,"lo1":-89.0895,"lo2":-89.0444,"dy":0.0017,"dx":0.0017,"nx":28,"ny":28,"refTime":"2024-03-12T21:00:00:Z","depth":0,"parameterNumber":3,"parameterNumberName":"V-component_of_WINDS"},"data":[0,0,0,0,0,0,0,0,0,0,0,0,0,0,0,0,0,0,0,0,0,0,0,0,0,0,0,0,0,0,0,0,0,0,0,0,0,0,0,0,0,0,0,0,0,0,0,0,0,0,0,0,0,0,0,0,0,0,0.9028,0.9029,0,0.9106,0.9107,0.9108,0.9222,0.9224,0.9226,0.9227,0.9303,0.9303,0.9303,0,0,0,0,0,0,0,0,0,0,0,0,0,0.8973,0.8973,0.9028,0.9029,0.903,0.9106,0.9107,0.9108,0.9221,0.9224,0.9226,0.9228,0.9303,0.9303,0.9303,0,0,0,0,0,0,0,0,0,0,0,0,0,0.9018,0.8973,0.9028,0.9096,0.9102,0.9106,0.9107,0.9109,0.9221,0.9224,0.9227,0.9229,0.9303,0.9303,0.9303,0.9245,0,0,0.9304,0.9304,0,0,0,0,0,0,0,0,0.9015,0.902,0.9085,0.9091,0.9099,0.9157,0.9116,0.9154,0.922,0.9176,0.9227,0.9231,0.9252,0.9256,0.9264,0.9249,0.9252,0.9304,0.9304,0.9304,0.9304,0,0,0,0,0,0,0,0.9012,0.9017,0.9059,0.9085,0.9094,0.9121,0.9131,0.9123,0.9196,0.918,0.9188,0.9196,0.9256,0.9264,0.9267,0.9253,0.9304,0.9304,0.9304,0.9304,0.9194,0.9191,0,0,0,0,0,0,0.9,0.9014,0.9056,0.9061,0.9064,0.912,0.913,0.9135,0.9196,0.9209,0.9194,0.9201,0.9262,0.9266,0.927,0.9205,0.9304,0.9304,0.9305,0.9197,0.9193,0.919,0,0,0,0,0,0,0.8998,0.9002,0.9053,0.904,0.9049,0.9117,0.9122,0.9135,0.9143,0.9207,0.922,0.9188,0.9264,0.927,0.9251,0.921,0.9304,0.9305,0.92,0.9195,0.9191,0.9076,0,0,0,0,0,0,0.8996,0.9001,0.898,0.9039,0.9049,0.9033,0.912,0.9135,0.9144,0.9155,0.9205,0.9217,0.9267,0.925,0.9251,0.9212,0.9305,0.9204,0.9198,0.9193,0.9083,0.9068,0.9054,0,0,0,0,0,0.8994,0.8944,0.8979,0.8983,0.9025,0.9031,0.9036,0.9097,0.914,0.9119,0.916,0.9215,0.9215,0.9247,0.9249,0.9209,0.9207,0.92,0.9193,0.909,0.9071,0.9055,0,0,0,0,0,0,0.8877,0.8953,0.8992,0.896,0.8988,0.905,0.9025,0.9075,0.909,0.9099,0.9173,0.9183,0.9154,0.9181,0.9215,0.9156,0.9219,0.9212,0.914,0.9122,0.9108,0.9101,0.9305,0,0,0,0,0,0.8848,0.8847,0.8913,0.8879,0.8891,0.8955,0.896,0.9005,0.9036,0.9048,0.9088,0.9115,0.9122,0.9124,0.9133,0.9089,0.9101,0.9063,0.9048,0.9036,0.9028,0.9006,0.8989,0.9167,0.9167,0.9167,0,0,0.8786,0.8828,0.8823,0.8856,0.8883,0.888,0.8965,0.8958,0.8956,0.9047,0.9032,0.9062,0.9097,0.9065,0.9053,0.9086,0.8982,0.9027,0.9016,0.9016,0.8997,0.898,0.8965,0.9162,0.9163,0.9164,0,0,0.8673,0.8706,0.868,0.8706,0.8747,0.879,0.8784,0.8839,0.8862,0.8849,0.8917,0.8916,0.8925,0.8947,0.8959,0.8856,0.8906,0.8857,0.878,0.8757,0.8743,0.8731,0.8692,0.8678,0.885,0.885,0.885,0,0.8591,0.8591,0.866,0.8649,0.8661,0.8746,0.872,0.8741,0.8782,0.8787,0.8825,0.8838,0.8868,0.8842,0.8817,0.8825,0.8819,0.885,0.874,0.8728,0.8718,0.8682,0.8668,0.8843,0.8844,0.8845,0.8845,0,0.8488,0.8486,0.8461,0.8499,0.8509,0.849,0.8555,0.8556,0.8601,0.864,0.8624,0.8664,0.8682,0.868,0.8722,0.866,0.8679,0.8727,0.8791,0.8694,0.8661,0.8648,0.8834,0.8837,0.8838,0.884,0,0,0.83,0.8379,0.8368,0.8387,0.8439,0.8438,0.8424,0.8444,0.8442,0.8468,0.8456,0.8463,0.8508,0.8522,0.8569,0.8549,0.8463,0.86,0.8602,0.8571,0.8395,0.8356,0.8339,0.8498,0.8496,0.8494,0.8391,0,0.8196,0.8176,0.8238,0.8201,0.82,0.8282,0.8269,0.8298,0.8335,0.8338,0.8379,0.8382,0.8442,0.8451,0.8436,0.8477,0.8428,0.8485,0.8485,0.8485,0.8471,0.8323,0.8282,0.8183,0.8379,0.8377,0.8375,0,0.807,0.8091,0.8054,0.8109,0.8111,0.8098,0.8121,0.8124,0.8159,0.8188,0.8204,0.8258,0.8246,0.831,0.8294,0.8331,0.8335,0.8356,0.8353,0.8353,0.8422,0.8316,0.8153,0.8137,0.8356,0.8358,0.8359,0,0.7934,0.7953,0.7934,0.7948,0.8011,0.8,0.8026,0.8065,0.8073,0.8093,0.8099,0.8117,0.8125,0.8138,0.8195,0.8236,0.8171,0.824,0.8193,0.8191,0.8173,0.8172,0.8005,0.8179,0.8179,0.818,0.818,0,0.7809,0.7783,0.7874,0.7862,0.7835,0.7907,0.7878,0.7912,0.7946,0.794,0.8013,0.8006,0.8083,0.8085,0.813,0.8109,0.8113,0.8134,0.8145,0.8126,0.8123,0.8128,0.8135,0.8176,0.8177,0.8177,0.8178,0,0.7652,0.7712,0.7696,0.7759,0.7774,0.7751,0.7804,0.7794,0.7837,0.7829,0.7831,0.7897,0.7903,0.7962,0.7981,0.8011,0.7971,0.7997,0.7959,0.7967,0.7915,0.7918,0.7743,0.7723,0.7911,0.791,0.7908,0,0.7567,0.7549,0.761,0.7612,0.7635,0.7638,0.7647,0.7718,0.7724,0.7764,0.7749,0.7761,0.7774,0.7779,0.7828,0.7842,0.7868,0.7805,0.787,0.7851,0.7864,0.7863,0.7861,0.779,0.7788,0.7786,0.7784,0,0.7409,0.744,0.7451,0.7472,0.7481,0.7501,0.7525,0.7523,0.7601,0.7604,0.7611,0.7622,0.7642,0.7652,0.7675,0.7701,0.7754,0.7764,0.7754,0.7732,0.771,0.7719,0.7919,0.7767,0.7769,0.777,0.7771,0.7772,0.7284,0.7271,0.7312,0.7322,0.7348,0.7369,0.7364,0.7406,0.7414,0.7437,0.7478,0.7479,0.7516,0.7553,0.7574,0.7575,0.7607,0.7592,0.7588,0.7582,0.7571,0.7712,0.758,0.758,0.7581,0.7581,0.7582,0,0.7127,0.7158,0.7167,0.7199,0.7207,0.726,0.729,0.7292,0.7292,0.7323,0.7335,0.7343,0.7354,0.7404,0.742,0.7411,0.7436,0.7413,0.7413,0.7417,0.7542,0.7549,0.7392,0.7392,0.7392,0.7392,0.7392,0.7392,0.7047,0.7028,0.7064,0.706,0.7091,0.7094,0.7106,0.7126,0.715,0.7157,0.7167,0.72,0.7238,0.7258,0.727,0.7284,0.7286,0.7253,0.7275,0.7391,0.7409,0.7426,0.7433,0.7254,0.7254,0.715,0.7149,0.7149]}]]